1496757600.68,12392,18.94,73704.0,7.47,5.73,5.85,0,*7B
1496757601.9,12393,18.94,73702.5,7.49,5.67,5.77,0,*7C
1496757603.13,12394,18.94,73700.8,7.49,5.67,5.73,0,*7F
1496757604.36,12395,18.94,73702.3,7.49,5.67,5.77,0,*7A
1496757605.55,12396,18.94,73700.5,7.47,5.45,5.45,0,*76
1496757606.74,12397,18.94,73700.0,7.47,5.45,5.45,0,*77
1496757607.96,12398,18.94,73698.8,7.47,5.63,5.55,0,*7D
1496757609.18,12399,18.94,73700.5,7.49,5.99,5.99,0,*77
1496757610.41,12400,18.94,73702.5,7.47,5.89,5.99,0,*7F
1496757611.64,12401,18.94,73702.5,7.47,5.89,5.95,0,*72
1496757612.89,12402,18.94,73702.3,7.47,5.89,5.89,0,*7C
1496757614.12,12403,18.94,73700.8,7.47,5.89,5.99,0,*7C
1496757615.33,12404,18.94,73704.0,7.47,5.99,6.11,0,*79
1496757616.54,12405,18.94,73702.8,7.49,5.99,6.11,0,*76
1496757617.75,12406,18.94,73702.3,7.49,5.95,6.03,0,*7A
1496757618.96,12407,18.94,73704.8,7.49,5.95,6.03,0,*7B
1496757620.16,12408,18.94,73704.8,7.47,5.95,6.03,0,*7A
1496757621.38,12409,18.94,73700.8,7.49,5.95,6.03,0,*75
1496757622.58,12410,18.94,73700.0,7.47,5.95,6.03,0,*73
1496757623.79,12411,18.94,73702.0,7.47,5.95,6.11,0,*71
1496757625.0,12412,18.94,73700.5,7.49,6.03,6.11,0,*70
1496757626.2,12413,18.94,73700.8,7.47,5.99,5.99,0,*7C
1496757627.46,12414,18.94,73700.0,7.49,5.85,5.85,0,*75
1496757628.68,12415,18.94,73704.3,7.49,5.55,5.63,0,*71
1496757629.91,12416,18.94,73702.3,7.49,5.67,5.73,0,*72
1496757631.14,12417,18.94,73706.3,7.49,5.85,5.95,0,*77
1496757632.34,12418,18.94,73700.3,7.47,5.99,6.11,0,*74
1496757633.58,12419,18.94,73702.0,7.49,5.89,5.95,0,*75
1496757634.81,12420,18.94,73702.3,7.49,5.85,5.95,0,*73
1496757636.06,12421,18.94,73702.0,7.49,5.73,5.85,0,*7A
1496757637.27,12422,18.94,73702.3,7.47,5.63,5.67,0,*7A
1496757638.47,12423,18.94,73704.3,7.47,5.63,5.63,0,*7F
1496757639.69,12424,18.94,73700.8,7.49,5.77,5.95,0,*7A
1496757640.95,12425,18.94,73700.0,7.49,5.85,5.85,0,*77
1496757642.2,12426,18.94,73700.5,7.49,5.73,5.85,0,*7D
1496757643.45,12427,18.94,73700.5,7.49,5.73,5.77,0,*71
1496757644.69,12428,18.94,73702.3,7.49,5.77,5.89,0,*7B
1496757645.92,12429,18.94,73704.5,7.49,5.55,5.63,0,*7E
1496757647.12,12430,18.94,73700.3,7.51,5.67,5.77,0,*7B
1496757648.36,12431,18.94,73702.8,7.49,5.55,5.73,0,*76
1496757649.59,12432,18.94,73702.8,7.49,5.63,5.77,0,*74
1496757650.77,12433,18.94,73702.3,7.51,5.67,5.71,0,*7E
1496757651.95,12434,18.94,73702.3,7.51,5.59,5.67,0,*73
1496757653.16,12435,18.94,73700.0,7.53,5.59,5.63,0,*74
1496757654.34,12436,18.94,73700.8,7.51,5.33,5.49,0,*71
1496757655.51,12437,18.94,73702.5,7.51,5.45,5.49,0,*71
1496757656.68,12438,18.94,73706.3,7.51,5.33,5.45,0,*73
1496757657.89,12439,18.94,73700.0,7.49,5.33,5.45,0,*7B
1496757659.06,12440,18.94,73702.8,7.51,5.49,5.59,0,*7C
1496757660.29,12441,18.94,73702.3,7.49,5.41,5.51,0,*74
1496757661.53,12442,18.94,73702.3,7.49,5.05,5.15,0,*77
1496757662.74,12443,18.94,73700.5,7.51,4.97,5.07,0,*76
1496757663.92,12444,18.94,73700.0,7.51,5.23,5.37,0,*7C
1496757665.12,12445,18.94,73702.8,7.49,5.41,5.45,0,*75
1496757666.33,12446,18.94,73700.3,7.47,5.19,5.33,0,*74
1496757667.53,12447,18.94,73702.8,7.49,5.07,5.15,0,*70
1496757668.72,12448,18.94,73700.3,7.47,5.29,5.41,0,*7C
1496757669.94,12449,18.94,73700.8,7.47,5.45,5.55,0,*72
1496757671.19,12450,18.94,73698.3,7.47,5.51,5.55,0,*7F
1496757672.41,12451,18.94,73698.3,7.49,5.63,5.77,0,*71
1496757673.66,12452,18.94,73702.3,7.47,5.73,5.89,0,*7C
1496757674.88,12453,18.94,73702.5,7.47,5.77,5.95,0,*74
1496757676.1,12454,18.94,73702.0,7.47,5.67,5.73,0,*7A
1496757677.32,12455,18.94,73702.5,7.47,5.63,5.73,0,*7F
1496757678.55,12456,18.94,73702.5,7.49,5.67,5.73,0,*76
1496757679.8,12457,18.94,73702.3,7.47,5.73,5.85,0,*75
1496757681.05,12458,18.94,73700.3,7.49,5.73,5.77,0,*79
1496757682.28,12459,18.94,73702.3,7.49,5.63,5.73,0,*7D
1496757683.5,12460,18.94,73700.5,7.49,5.67,5.73,0,*73
1496757684.73,12461,18.94,73704.0,7.49,5.85,5.95,0,*76
1496757685.96,12462,18.94,73700.0,7.49,5.85,5.95,0,*75
1496757687.21,12463,18.94,73700.5,7.49,5.77,5.77,0,*75
1496757688.39,12464,18.94,73704.8,7.51,5.59,5.67,0,*76
1496757689.61,12465,18.94,73700.5,7.47,5.67,5.85,0,*71
1496757690.87,12466,18.94,73698.8,7.49,5.73,5.85,0,*79
1496757692.12,12467,18.94,73700.0,7.49,5.51,5.55,0,*75
1496757693.34,12468,18.94,73702.8,7.49,5.51,5.63,0,*7F
1496757694.57,12469,18.94,73700.3,7.49,5.55,5.63,0,*7A
1496757695.77,12470,18.94,73702.8,7.49,5.63,5.71,0,*74
1496757697.02,12471,18.94,73696.0,7.49,5.73,5.77,0,*72
1496757698.27,12472,18.94,73692.0,7.49,5.73,5.73,0,*75
1496757699.48,12473,18.94,73692.8,7.49,5.63,5.67,0,*70
1496757700.71,12474,18.94,73692.3,7.49,5.67,5.73,0,*76
1496757701.96,12475,18.94,73694.0,7.47,5.73,5.77,0,*78
1496757703.21,12476,18.94,73694.5,7.49,5.85,5.89,0,*7D
1496757704.42,12477,18.94,73698.5,7.49,5.95,5.99,0,*7C
1496757705.66,12478,18.94,73698.5,7.47,5.77,5.85,0,*7C
1496757706.87,12479,18.94,73694.8,7.49,5.63,5.67,0,*7A
1496757708.08,12480,18.94,73698.0,7.49,5.63,5.63,0,*78
1496757709.3,12481,18.94,73698.5,7.47,5.27,5.41,0,*77
1496757710.54,12482,18.94,73694.5,7.47,5.77,5.89,0,*75
1496757711.76,12483,18.94,73694.3,7.47,5.67,5.73,0,*70
1496757713.0,12484,18.94,73698.0,7.47,5.77,5.77,0,*72
1496757714.22,12485,18.94,73698.8,7.47,5.55,5.63,0,*76
1496757715.42,12486,18.94,73696.8,7.49,5.41,5.45,0,*7A
1496757716.63,12487,18.94,73696.5,7.49,5.67,5.63,0,*7B
1496757717.85,12488,18.94,73700.0,7.47,5.67,5.73,0,*7B
1496757719.05,12489,18.94,73706.5,7.47,5.15,5.15,0,*7F
1496757720.31,12490,18.94,73704.8,7.47,4.93,4.97,0,*73
1496757721.53,12491,18.94,73708.0,7.47,5.45,5.51,0,*73
1496757722.72,12492,18.94,73714.8,7.47,5.41,5.45,0,*71
1496757723.93,12493,18.94,73708.8,7.43,5.63,5.63,0,*70
1496757725.14,12494,18.94,73710.0,7.47,5.51,5.45,0,*76
1496757726.4,12495,18.94,73708.3,7.47,5.05,4.97,0,*78
1496757727.6,12496,18.94,73716.8,7.47,5.29,5.19,0,*72
1496757728.8,12497,18.94,73718.0,7.47,5.29,5.15,0,*7F
1496757730.05,12498,18.94,73720.5,7.47,4.93,4.75,0,*77
1496757731.31,12499,18.94,73714.5,7.47,4.75,4.71,0,*7A
1496757732.53,12500,18.94,73716.5,7.47,4.63,4.27,0,*7F
1496757733.73,12501,18.94,73716.0,7.47,4.45,3.55,0,*78
1496757734.95,12502,18.94,73716.8,7.43,3.85,2.17,0,*73
1496757736.18,12503,18.94,73718.8,7.41,3.97,2.17,0,*73
1496757737.37,12504,18.94,73710.3,7.43,4.19,2.31,0,*73
1496757738.62,12505,18.94,73708.5,7.43,3.97,2.05,0,*74
1496757739.84,12506,18.94,73708.8,7.43,3.79,1.83,0,*7A
1496757741.07,12507,18.94,73706.3,7.47,3.93,1.97,0,*7E
1496757742.32,12508,18.94,73698.8,7.47,4.05,2.25,0,*73
1496757743.52,12509,18.94,73698.0,7.47,3.81,2.35,0,*78
1496757744.76,12510,18.94,73696.5,7.49,3.75,2.61,0,*74
1496757746.01,12511,18.94,73698.3,7.49,3.53,3.19,0,*7F
1496757747.24,12512,18.94,73696.0,7.49,4.05,4.11,0,*77
1496757748.47,12513,18.94,73694.5,7.49,4.63,4.85,0,*7B
1496757749.73,12514,18.94,73694.3,7.49,5.05,5.27,0,*74
1496757750.96,12515,18.94,73696.5,7.51,4.79,5.01,0,*72
1496757752.22,12516,18.94,73692.0,7.53,4.79,5.05,0,*77
1496757753.49,12517,18.94,73694.3,7.53,5.01,5.01,0,*7C
1496757754.7,12518,18.94,73696.3,7.53,4.89,4.81,0,*7B
1496757755.96,12519,18.94,73700.0,7.53,4.67,4.79,0,*7D
1496757757.19,12520,18.94,73700.0,7.53,4.59,4.89,0,*75
1496757758.42,12521,18.94,73700.3,7.53,4.67,4.89,0,*79
1496757759.64,12522,18.94,73700.8,7.55,5.05,5.23,0,*78
1496757760.84,12523,18.94,73704.8,7.55,4.67,4.81,0,*75
1496757762.05,12524,18.94,73704.3,7.53,4.41,4.57,0,*7B
1496757763.27,12525,18.94,73704.0,7.53,4.19,4.41,0,*70
1496757764.52,12526,18.94,73700.8,7.53,3.71,4.01,0,*7E
1496757765.75,12527,18.94,73704.0,7.53,3.25,3.53,0,*7E
1496757766.99,12528,18.94,73706.8,7.53,2.65,3.15,0,*76
1496757768.26,12529,18.94,73706.5,7.53,1.97,3.11,0,*7D
1496757769.51,12530,18.94,73706.3,7.53,1.85,3.19,0,*7E
1496757770.76,12531,18.94,73708.5,7.53,0.79,3.19,0,*4D
1496757771.98,12532,18.94,73706.8,7.53,0.05,3.19,0,*75
1496757773.19,12533,18.94,73706.8,7.51,-0.19,2.73,0,*6B
1496757774.45,12534,18.94,73710.0,7.53,0.91,3.15,0,*42
1496757775.68,12535,18.94,73706.0,7.51,0.95,3.11,0,*41
1496757776.9,12536,18.94,73714.8,7.51,1.71,3.37,0,*7D
1496757778.14,12537,18.94,73714.5,7.51,2.05,3.49,0,*75
1496757779.37,12538,18.94,73718.0,7.51,2.17,3.45,0,*75
1496757780.57,12539,18.94,73712.8,7.51,2.55,3.59,0,*7F
1496757781.77,12540,18.94,73712.8,7.51,2.95,3.79,0,*7F
1496757782.97,12541,18.94,73708.5,7.51,3.45,4.15,0,*7F
1496757784.18,12542,18.94,73706.3,7.51,3.59,4.31,0,*77
1496757785.41,12543,18.94,73706.8,7.51,3.79,4.31,0,*74
1496757786.65,12544,18.94,73710.3,7.49,3.79,4.33,0,*78
1496757787.86,12545,18.94,73704.3,7.49,3.89,4.33,0,*76
1496757789.07,12546,18.94,73706.0,7.49,4.11,4.49,0,*7E
1496757790.3,12547,18.94,73702.0,7.51,4.31,4.75,0,*7B
1496757791.51,12548,18.94,73700.8,7.51,4.57,4.79,0,*78
1496757792.71,12549,18.94,73696.8,7.51,4.75,4.85,0,*7A
1496757793.95,12550,18.94,73700.8,7.51,4.97,4.97,0,*7D
1496757795.16,12551,18.94,73700.5,7.53,5.11,5.15,0,*7A
1496757796.42,12552,18.94,73702.3,7.53,5.05,5.05,0,*7D
1496757797.62,12553,18.94,73706.0,7.53,4.81,4.81,0,*7C
1496757798.86,12554,18.94,73706.0,7.53,4.81,4.79,0,*7C
1496757800.07,12555,18.94,73702.5,7.55,4.81,4.71,0,*73
1496757801.3,12556,18.94,73700.3,7.53,5.01,4.81,0,*70
1496757802.56,12557,18.94,73702.3,7.53,5.27,5.05,0,*78
1496757803.73,12558,18.94,73698.0,7.55,5.15,4.89,0,*75
1496757804.91,12559,18.94,73698.5,7.55,5.23,4.81,0,*79
1496757806.12,12560,18.94,73698.8,7.55,5.11,4.79,0,*75
1496757807.33,12561,18.94,73700.5,7.55,5.33,5.01,0,*7A
1496757808.59,12562,18.94,73702.5,7.57,5.05,4.75,0,*7C
1496757809.81,12563,18.94,73704.5,7.55,4.89,4.71,0,*7E
1496757811.01,12564,18.94,73702.0,7.55,5.15,5.05,0,*7F
1496757812.2,12565,18.94,73706.5,7.55,5.23,5.15,0,*7A
1496757813.38,12566,18.94,73702.0,7.55,4.81,4.81,0,*7C
1496757814.6,12567,18.94,73702.3,7.57,4.63,4.49,0,*77
1496757815.81,12568,18.94,73696.5,7.55,4.59,4.45,0,*7F
1496757817.02,12569,18.94,73698.8,7.53,4.53,4.33,0,*73
1496757818.26,12570,18.94,73700.5,7.53,4.67,4.41,0,*79
1496757819.49,12571,18.94,73704.3,7.53,4.59,4.23,0,*71
1496757820.69,12572,18.94,73702.8,7.51,4.41,3.97,0,*71
1496757821.87,12573,18.94,73700.0,7.51,4.07,3.55,0,*7C
1496757823.11,12574,18.94,73700.5,7.53,4.11,3.71,0,*78
1496757824.34,12575,18.94,73698.8,7.51,3.79,3.45,0,*75
1496757825.54,12576,18.94,73702.5,7.51,3.71,3.55,0,*7F
1496757826.75,12577,18.94,73700.5,7.51,3.93,3.71,0,*74
1496757827.97,12578,18.94,73706.0,7.47,3.55,3.53,0,*76
1496757829.17,12579,18.94,73702.0,7.47,3.81,3.89,0,*79
1496757830.37,12580,18.94,73704.0,7.47,4.27,4.23,0,*73
1496757831.6,12581,18.94,73706.0,7.47,4.11,4.01,0,*77
1496757832.82,12582,18.94,73704.5,7.47,3.79,3.63,0,*7E
1496757834.05,12583,18.94,73704.3,7.47,3.79,3.63,0,*7F
1496757835.27,12584,18.94,73706.0,7.43,3.85,3.79,0,*74
1496757836.47,12585,18.94,73706.5,7.41,3.89,3.97,0,*7B
1496757837.67,12586,18.94,73704.5,7.43,3.85,3.89,0,*79
1496757838.87,12587,18.94,73704.5,7.41,3.85,3.97,0,*75
1496757840.06,12588,18.94,73706.0,7.41,3.79,3.85,0,*7A
1496757841.26,12589,18.94,73706.0,7.41,3.85,3.97,0,*7B
1496757842.52,12590,18.94,73702.3,7.39,3.37,3.45,0,*7A
1496757843.72,12591,18.94,73698.0,7.37,3.45,3.55,0,*71
1496757844.92,12592,18.94,73694.5,7.37,3.63,3.71,0,*70
1496757846.13,12593,18.94,73690.5,7.37,3.71,3.81,0,*7D
1496757847.32,12594,18.94,73686.5,7.37,3.89,3.89,0,*75
1496757848.55,12595,18.88,73676.8,7.35,3.93,4.01,0,*7A
1496757849.73,12596,18.94,73678.5,7.33,4.11,4.19,0,*7B
1496757850.93,12597,18.94,73684.8,7.33,4.57,4.67,0,*71
1496757852.14,12598,18.88,73682.3,7.33,4.71,4.81,0,*72
1496757853.38,12599,18.94,73688.0,7.33,4.59,4.79,0,*7E
1496757854.61,12600,18.94,73686.3,7.33,4.63,4.63,0,*7F
1496757855.79,12601,18.94,73688.5,7.29,4.41,4.45,0,*71
1496757857.02,12602,18.94,73688.3,7.33,4.79,4.79,0,*7D
1496757858.28,12603,18.94,73688.3,7.31,4.79,4.75,0,*72
1496757859.48,12604,18.94,73690.0,7.31,5.11,5.15,0,*7D
1496757860.68,12605,18.94,73692.0,7.31,5.37,5.49,0,*71
1496757861.88,12606,18.94,73692.3,7.33,5.41,5.51,0,*78
1496757863.06,12607,18.94,73694.0,7.29,5.49,5.59,0,*72
1496757864.28,12608,18.94,73696.8,7.31,5.45,5.55,0,*74
1496757865.48,12609,18.94,73700.8,7.35,5.41,5.45,0,*74
1496757866.7,12610,18.94,73702.5,7.33,5.27,5.27,0,*7E
1496757867.91,12611,18.94,73704.5,7.33,5.19,5.27,0,*72
1496757869.12,12612,18.94,73702.0,7.33,4.93,4.89,0,*77
1496757870.35,12613,18.94,73702.5,7.33,4.79,4.79,0,*7D
1496757871.58,12614,18.94,73702.3,7.33,5.05,5.05,0,*7A
1496757872.82,12615,18.94,73702.8,7.33,4.93,5.05,0,*75
1496757874.07,12616,18.94,73700.0,7.35,4.63,4.63,0,*7E
1496757875.28,12617,18.94,73694.8,7.33,4.71,4.89,0,*7E
1496757876.49,12618,18.94,73694.0,7.33,5.05,5.19,0,*7B
1496757877.69,12619,18.94,73692.3,7.33,5.27,5.29,0,*79
1496757878.9,12620,18.94,73692.0,7.35,5.15,5.23,0,*7E
1496757880.08,12621,18.94,73694.5,7.33,5.19,5.29,0,*7F
1496757881.29,12622,18.94,73694.0,7.35,5.15,5.23,0,*7C
1496757882.55,12623,18.94,73688.3,7.35,4.93,5.05,0,*76
1496757883.78,12624,18.94,73688.3,7.35,4.97,5.07,0,*77
1496757885.02,12625,18.94,73686.3,7.35,5.05,5.19,0,*73
1496757886.2,12626,18.94,73676.0,7.33,5.15,5.29,0,*74
1496757887.43,12627,18.94,73670.0,7.35,5.05,5.15,0,*7D
1496757888.63,12628,18.94,73680.5,7.35,5.15,5.33,0,*77
1496757889.86,12629,18.94,73686.5,7.35,5.33,5.51,0,*76
1496757891.06,12630,18.94,73686.5,7.35,5.41,5.41,0,*7A
1496757892.3,12631,18.94,73688.0,7.33,4.93,4.93,0,*7D
1496757893.56,12632,18.94,73680.5,7.35,4.71,4.63,0,*7B
1496757894.76,12633,18.94,73678.0,7.35,4.41,4.53,0,*7A
1496757896.0,12634,18.94,73698.3,7.33,4.59,4.67,0,*75
1496757897.24,12635,18.94,73692.3,7.33,4.71,4.71,0,*79
1496757898.42,12636,18.94,73696.5,7.33,4.23,4.33,0,*7B
1496757899.63,12637,18.94,73698.0,7.31,4.15,4.07,0,*7A
1496757900.82,12638,18.94,73700.3,7.31,4.19,4.19,0,*76
1496757902.0,12639,18.94,73698.8,7.29,4.41,4.45,0,*7A
1496757903.21,12640,18.88,73700.8,7.31,4.33,4.45,0,*78
1496757904.39,12641,18.94,73700.0,7.29,4.45,4.45,0,*71
1496757905.61,12642,18.94,73698.8,7.27,4.31,4.27,0,*7B
1496757906.81,12643,18.94,73698.8,7.27,4.49,4.53,0,*76
1496757908.04,12644,18.94,73698.8,7.27,4.75,4.81,0,*71
1496757909.27,12645,18.94,73696.8,7.27,4.97,5.07,0,*73
1496757910.47,12646,18.88,73698.0,7.29,5.27,5.37,0,*77
1496757911.65,12647,18.94,73700.8,7.29,5.37,5.49,0,*7E
1496757912.82,12648,18.94,73700.8,7.29,5.49,5.49,0,*78
1496757914.02,12649,18.88,73698.0,7.31,5.33,5.45,0,*71
1496757915.22,12650,18.94,73694.8,7.31,5.49,5.59,0,*79
1496757916.44,12651,18.94,73696.0,7.31,5.55,5.59,0,*75
1496757917.64,12652,18.94,73700.8,7.31,5.45,5.49,0,*76
1496757918.84,12653,18.94,73704.3,7.31,5.59,5.67,0,*76
1496757920.08,12654,18.94,73704.5,7.31,5.77,5.77,0,*7C
1496757921.25,12655,18.88,73702.3,7.33,5.29,5.37,0,*70
1496757922.49,12656,18.94,73698.5,7.33,5.01,5.01,0,*7C
1496757923.75,12657,18.94,73696.3,7.31,5.01,5.01,0,*7F
1496757924.98,12658,18.94,73696.8,7.31,4.97,4.89,0,*7F
1496757926.18,12659,18.94,73692.0,7.33,5.15,5.05,0,*72
1496757927.39,12660,18.94,73696.0,7.33,5.05,4.81,0,*74
1496757928.62,12661,18.94,73700.5,7.33,5.05,4.79,0,*72
1496757929.87,12662,18.94,73700.3,7.31,5.27,4.97,0,*73
1496757931.09,12663,18.94,73708.0,7.33,5.27,4.93,0,*74
1496757932.3,12664,18.94,73704.8,7.33,5.37,4.79,0,*76
1496757933.53,12665,18.94,73708.5,7.35,5.67,4.75,0,*78
1496757934.76,12666,18.94,73708.3,7.35,5.77,4.37,0,*7C
1496757935.99,12667,18.94,73712.3,7.39,5.49,3.71,0,*79
1496757937.21,12668,18.94,73712.0,7.39,5.33,3.23,0,*7C
1496757938.44,12669,18.94,73712.5,7.39,4.89,2.39,0,*77
1496757939.66,12670,18.94,73712.5,7.39,4.75,1.05,0,*70
1496757940.89,12671,18.94,73716.8,7.41,4.71,0.17,0,*48
1496757942.08,12672,18.94,73716.8,7.41,4.23,-0.89,0,*66
1496757943.28,12673,18.94,73712.5,7.41,4.49,-0.27,0,*6F
1496757944.52,12674,18.88,73710.3,7.43,4.67,0.25,0,*49
1496757945.76,12675,18.94,73712.8,7.43,4.59,0.67,0,*43
1496757947.0,12676,18.94,73708.5,7.43,4.79,1.71,0,*74
1496757948.23,12677,18.94,73710.5,7.43,4.89,2.81,0,*76
1496757949.43,12678,18.94,73704.8,7.43,4.57,3.25,0,*75
1496757950.62,12679,18.94,73704.5,7.47,4.81,4.11,0,*7B
1496757951.85,12680,18.94,73702.3,7.47,4.97,4.85,0,*77
1496757953.09,12681,18.94,73704.5,7.49,5.05,5.19,0,*76
1496757954.3,12682,18.94,73704.5,7.49,4.85,5.19,0,*7C
1496757955.51,12683,18.94,73704.3,7.47,4.85,5.19,0,*73
1496757956.77,12684,18.94,73700.3,7.49,4.71,5.05,0,*7C
1496757958.03,12685,18.94,73702.0,7.49,4.63,5.05,0,*7E
1496757959.29,12686,18.94,73700.5,7.49,4.71,5.27,0,*7E
1496757960.55,12687,18.94,73700.5,7.49,4.63,5.27,0,*7C
1496757961.75,12688,18.94,73700.3,7.51,4.63,5.29,0,*74
1496757962.98,12689,18.94,73702.3,7.53,4.67,5.37,0,*7C
1496757964.21,12690,18.94,73698.3,7.53,4.53,5.27,0,*72
1496757965.45,12691,18.94,73702.0,7.53,4.45,5.27,0,*74
1496757966.64,12692,18.94,73696.8,7.51,4.37,5.11,0,*75
1496757967.83,12693,18.94,73700.3,7.55,4.45,5.23,0,*74
1496757969.0,12694,18.88,73692.8,7.51,4.57,5.33,0,*75
1496757970.24,12695,18.94,73698.8,7.53,4.67,5.37,0,*71
1496757971.47,12696,18.94,73698.0,7.53,4.79,5.37,0,*7D
1496757972.7,12697,18.94,73696.0,7.53,4.79,5.37,0,*7C
1496757973.89,12698,18.94,73702.5,7.55,4.89,5.33,0,*7E
1496757975.12,12699,18.94,73698.8,7.53,5.01,5.37,0,*7C
1496757976.33,12700,18.94,73702.0,7.53,5.23,5.49,0,*74
1496757977.56,12701,18.94,73696.8,7.53,5.27,5.59,0,*70
1496757978.76,12702,18.94,73696.5,7.55,5.27,5.59,0,*75
1496757979.96,12703,18.94,73700.8,7.55,5.37,5.51,0,*7D
1496757981.19,12704,18.94,73702.8,7.57,5.55,5.67,0,*79
1496757982.37,12705,18.88,73696.8,7.59,5.59,5.67,0,*7A
1496757983.57,12706,18.94,73700.0,7.55,5.51,5.59,0,*70
1496757984.78,12707,18.94,73704.0,7.55,5.51,5.63,0,*78
1496757985.98,12708,18.94,73702.5,7.55,5.51,5.59,0,*7E
1496757987.2,12709,18.94,73700.3,7.57,5.63,5.73,0,*74
1496757988.39,12710,18.94,73702.3,7.55,5.63,5.71,0,*7C
1496757989.62,12711,18.94,73702.3,7.55,5.81,5.85,0,*7A
1496757990.82,12712,18.94,73700.8,7.57,6.07,6.11,0,*78
1496757992.02,12713,18.94,73706.0,7.57,6.07,6.07,0,*7E
1496757993.22,12714,18.94,73704.3,7.57,6.07,6.11,0,*7E
1496757994.4,12715,18.94,73704.5,7.59,6.03,6.11,0,*75
1496757995.63,12716,18.94,73700.8,7.59,6.13,6.13,0,*75
1496757996.84,12717,18.94,73704.5,7.61,5.99,6.03,0,*7F
1496757998.02,12718,18.88,73700.0,7.59,5.99,5.99,0,*7B
1496757999.23,12719,18.94,73700.0,7.59,5.89,5.99,0,*7B
1496758000.49,12720,18.94,73698.3,7.61,5.93,5.89,0,*70
1496758001.68,12721,18.94,73698.8,7.59,5.99,6.03,0,*71
1496758002.89,12722,18.94,73698.0,7.61,6.03,5.99,0,*79
1496758004.11,12723,18.94,73698.0,7.61,6.03,6.03,0,*78
1496758005.34,12724,18.88,73696.0,7.59,5.93,5.93,0,*74
1496758006.55,12725,18.94,73700.5,7.61,5.67,5.71,0,*79
1496758007.77,12726,18.94,73696.5,7.61,5.71,5.77,0,*7B
1496758009.0,12727,18.94,73698.3,7.63,5.85,5.93,0,*79
1496758010.25,12728,18.94,73698.3,7.61,5.55,5.55,0,*73
1496758011.44,12729,18.94,73696.5,7.63,5.71,5.73,0,*72
1496758012.66,12730,18.94,73700.0,7.63,5.85,5.93,0,*7F
1496758013.84,12731,18.94,73698.3,7.63,5.63,5.63,0,*79
1496758015.09,12732,18.94,73696.8,7.65,5.51,5.51,0,*7C
1496758016.31,12733,18.94,73698.3,7.65,5.51,5.63,0,*7C
1496758017.51,12734,18.94,73698.3,7.63,5.71,5.81,0,*73
1496758018.73,12735,18.94,73698.5,7.63,5.81,5.81,0,*7D
1496758019.96,12736,18.94,73700.5,7.63,5.85,5.85,0,*7E
1496758021.16,12737,18.94,73698.8,7.65,6.07,6.03,0,*7D
1496758022.34,12738,18.94,73698.5,7.63,5.95,6.03,0,*7C
1496758023.55,12739,18.94,73698.0,7.65,5.95,5.95,0,*77
1496758024.76,12740,18.94,73698.5,7.65,6.03,5.95,0,*75
1496758025.97,12741,18.94,73696.8,7.65,6.03,5.95,0,*74
1496758027.15,12742,18.94,73696.5,7.67,5.99,6.11,0,*7A
1496758028.4,12743,18.94,73702.5,7.65,6.13,6.13,0,*7A
1496758029.6,12744,18.88,73698.8,7.65,6.07,6.03,0,*79
1496758030.8,12745,18.94,73700.8,7.65,5.59,5.59,0,*7C
1496758032.03,12746,18.94,73706.0,7.65,5.49,5.51,0,*76
1496758033.23,12747,18.94,73704.3,7.65,5.63,5.71,0,*7D
1496758034.46,12748,18.88,73700.8,7.67,5.89,5.89,0,*73
1496758035.68,12749,18.94,73704.5,7.67,5.85,5.85,0,*72
1496758036.91,12750,18.94,73702.5,7.67,5.89,5.89,0,*7A
1496758038.08,12751,18.94,73702.3,7.67,5.99,6.07,0,*7F
1496758039.26,12752,18.94,73702.0,7.67,6.21,6.21,0,*78
1496758040.44,12753,18.94,73700.3,7.71,6.11,6.07,0,*79
1496758041.64,12754,18.94,73704.3,7.67,6.13,5.99,0,*7F
1496758042.85,12755,18.94,73706.8,7.71,6.35,6.21,0,*7D
1496758044.08,12756,18.94,73708.5,7.73,6.03,5.77,0,*79
1496758045.31,12757,18.88,73708.0,7.73,5.81,5.19,0,*79
1496758046.53,12758,18.94,73710.0,7.73,5.07,4.05,0,*74
1496758047.73,12759,18.94,73708.5,7.75,4.23,2.39,0,*7D
1496758048.95,12760,18.94,73710.5,7.75,3.49,0.87,0,*4B
1496758050.18,12761,18.94,73710.3,7.77,2.51,-1.59,0,*5F
1496758051.42,12762,18.94,73708.0,7.77,1.09,-4.25,0,*5C
1496758052.62,12763,18.94,73700.3,7.77,0.01,-6.35,0,*57
1496758053.86,12764,18.94,73702.0,7.77,-0.65,-7.57,0,*4A
1496758055.07,12765,18.94,73696.0,7.77,-1.63,-6.05,0,*7A
1496758056.28,12766,18.94,73696.8,7.77,-0.65,-3.79,0,*40
1496758057.52,12767,18.94,73706.8,7.75,-1.01,-5.31,0,*7A
1496758058.74,12768,18.94,73706.8,7.75,-5.03,-10.49,0,*48
1496758059.93,12769,18.94,73706.3,7.75,-6.77,-13.51,0,*43
1496758061.17,12770,18.94,73706.3,7.73,-7.43,-13.07,0,*48
1496758062.44,12771,18.94,73706.8,7.73,-7.05,-11.59,0,*42
1496758063.66,12772,18.94,73702.8,7.73,-6.55,-10.19,0,*40
1496758064.87,12773,18.94,73694.8,7.71,-5.23,-8.55,0,*70
1496758066.08,12774,18.88,73692.0,7.71,-4.57,-7.61,0,*7D
1496758067.29,12775,18.88,73688.0,7.67,-3.71,-6.69,0,*71
1496758068.51,12776,18.94,73694.3,7.71,-3.43,-6.81,0,*72
1496758069.72,12777,18.88,73692.8,7.67,-3.47,-6.35,0,*7F
1496758070.91,12778,18.94,73692.3,7.71,-2.27,-4.09,0,*7D
1496758072.15,12779,18.94,73696.3,7.67,-1.47,-2.67,0,*70
1496758073.35,12780,18.94,73702.5,7.67,-0.23,-0.81,0,*7F
1496758074.52,12781,18.94,73702.0,7.71,-0.53,-1.25,0,*41
1496758075.71,12782,18.94,73700.8,7.67,-1.67,-1.67,0,*75
1496758076.91,12783,18.94,73694.8,7.71,-0.57,0.25,0,*5B
1496758078.17,12784,18.94,73692.3,7.65,1.33,2.43,0,*75
1496758079.38,12785,18.94,73692.8,7.65,2.91,3.93,0,*73
1496758080.63,12786,18.94,73698.0,7.65,3.71,4.31,0,*70
1496758081.81,12787,18.94,73694.5,7.67,4.33,4.49,0,*7D
1496758083.01,12788,18.88,73696.8,7.65,4.41,4.33,0,*78
1496758084.24,12789,18.94,73700.0,7.63,3.71,3.75,0,*7E
1496758085.47,12790,18.94,73700.8,7.65,2.91,3.49,0,*70
1496758086.67,12791,18.94,73700.8,7.63,2.69,3.59,0,*71
1496758087.9,12792,18.94,73706.5,7.63,2.39,3.41,0,*7E
1496758089.13,12793,18.94,73702.0,7.63,2.77,3.41,0,*75
1496758090.33,12794,18.94,73698.5,7.63,3.23,3.85,0,*7A
1496758091.53,12795,18.94,73696.0,7.63,3.37,4.07,0,*73
1496758092.73,12796,18.94,73696.8,7.61,3.59,4.15,0,*79
1496758093.94,12797,18.88,73694.0,7.61,3.93,4.37,0,*7E
1496758095.15,12798,18.94,73698.0,7.61,4.07,4.49,0,*72
1496758096.36,12799,18.94,73696.8,7.63,4.11,4.63,0,*7E
1496758097.56,12800,18.94,73696.5,7.63,4.23,4.79,0,*7B
1496758098.73,12801,18.94,73698.5,7.63,4.41,4.89,0,*71
1496758099.96,12802,18.94,73696.5,7.63,4.67,5.01,0,*77
1496758101.15,12803,18.94,73696.0,7.63,4.89,5.11,0,*77
1496758102.38,12804,18.94,73698.8,7.63,5.01,5.27,0,*74
1496758103.55,12805,18.94,73700.0,7.63,5.11,5.33,0,*71
1496758104.73,12806,18.94,73696.3,7.63,5.11,5.45,0,*73
1496758105.93,12807,18.94,73700.0,7.61,5.33,5.33,0,*71
1496758107.14,12808,18.94,73698.3,7.63,5.05,5.15,0,*7D
1496758108.34,12809,18.94,73698.0,7.63,4.81,4.93,0,*7E
1496758109.57,12810,18.94,73698.0,7.61,4.75,4.85,0,*78
1496758110.81,12811,18.94,73696.5,7.61,4.89,5.01,0,*77
1496758112.02,12812,18.94,73694.8,7.59,4.85,5.01,0,*73
1496758113.23,12813,18.94,73696.8,7.59,4.53,4.75,0,*7B
1496758114.43,12814,18.88,73692.0,7.59,4.67,4.85,0,*74
1496758115.62,12815,18.94,73694.5,7.59,4.89,5.11,0,*79
1496758116.82,12816,18.94,73694.0,7.59,4.79,4.89,0,*75
1496758118.02,12817,18.94,73696.0,7.59,4.79,4.89,0,*74
1496758119.22,12818,18.94,73696.5,7.59,4.97,4.89,0,*7B
1496758120.45,12819,18.94,73694.8,7.59,4.97,4.97,0,*75
1496758121.69,12820,18.94,73692.8,7.59,5.01,5.01,0,*7F
1496758122.9,12821,18.94,73694.0,7.55,5.01,4.89,0,*73
1496758124.08,12822,18.88,73690.0,7.55,4.81,4.81,0,*71
1496758125.26,12823,18.94,73694.0,7.55,4.81,4.57,0,*7B
1496758126.45,12824,18.94,73692.5,7.55,4.53,4.41,0,*74
1496758127.68,12825,18.94,73694.3,7.53,4.57,4.31,0,*70
1496758128.89,12826,18.94,73694.5,7.53,4.53,4.45,0,*74
1496758130.15,12827,18.94,73692.5,7.57,4.97,4.97,0,*76